| time (UTC) | temp C | wind direction | speed KPH | gust KPH | rain 1hr cm | rain 24hr cm | rain mn cm | humidity % | barometer mb |
| 20260506211942 | 19 | 191 | 1.6 | 9.7 | 0.00 | 0.36 | 0.36 | 81 | 1006.8 |
| 20260506211545 | 19 | 194 | 4.8 | 9.7 | 0.00 | 0.36 | 0.36 | 79 | 1006.9 |
| 20260506211436 | 20 | 193 | 4.8 | 9.7 | 0.00 | 0.36 | 0.36 | 80 | 1006.6 |
| 20260506210931 | 20 | 225 | 3.2 | 12.9 | 0.00 | 0.36 | 0.36 | 81 | 1006.7 |
| 20260506210425 | 19 | 199 | 4.8 | 12.9 | 0.00 | 0.36 | 0.36 | 81 | 1006.6 |
| 20260506210045 | 19 | 219 | 3.2 | 11.3 | 0.00 | 0.36 | 0.36 | 81 | 1006.9 |
| 20260506205923 | 19 | 196 | 3.2 | 11.3 | 0.00 | 0.36 | 0.36 | 81 | 1006.6 |
| 20260506205634 | 19 | 226 | 4.8 | 11.3 | 0.00 | 0.36 | 0.36 | 81 | 1006.7 |
| 20260506204913 | 18 | 207 | 4.8 | 11.3 | 0.00 | 0.36 | 0.36 | 82 | 1006.9 |
| 20260506204553 | 18 | 0 | 3.2 | 11.3 | 0.00 | 0.36 | 0.36 | 82 | 1007.0 |
| 20260506204409 | 18 | 218 | 3.2 | 11.3 | 0.00 | 0.36 | 0.36 | 83 | 1006.7 |
| 20260506203905 | 18 | 201 | 6.4 | 12.9 | 0.00 | 0.36 | 0.36 | 83 | 1006.7 |
| 20260506203400 | 18 | 214 | 8.0 | 12.9 | 0.00 | 0.36 | 0.36 | 83 | 1006.8 |
| 20260506203042 | 18 | 204 | 3.2 | 14.5 | 0.00 | 0.36 | 0.36 | 83 | 1007.0 |
| 20260506202854 | 18 | 184 | 4.8 | 14.5 | 0.00 | 0.36 | 0.36 | 83 | 1006.7 |
| 20260506202350 | 18 | 210 | 4.8 | 14.5 | 0.00 | 0.36 | 0.36 | 83 | 1006.7 |
| 20260506201850 | 18 | 211 | 6.4 | 11.3 | 0.00 | 0.36 | 0.36 | 83 | 1006.6 |
| 20260506201541 | 18 | 212 | 4.8 | 16.1 | 0.00 | 0.36 | 0.36 | 82 | 1006.9 |
| 20260506201334 | 18 | 221 | 1.6 | 16.1 | 0.00 | 0.36 | 0.36 | 84 | 1006.6 |
| 20260506200829 | 18 | 210 | 6.4 | 16.1 | 0.00 | 0.36 | 0.36 | 84 | 1006.5 |
| 20260506200326 | 18 | 175 | 4.8 | 12.9 | 0.00 | 0.36 | 0.36 | 85 | 1006.7 |
| 20260506200051 | 17 | 200 | 6.4 | 12.9 | 0.00 | 0.36 | 0.36 | 84 | 1007.0 |
| 20260506195822 | 18 | 200 | 6.4 | 11.3 | 0.00 | 0.36 | 0.36 | 85 | 1006.6 |
| 20260506195319 | 18 | 205 | 4.8 | 16.1 | 0.00 | 0.36 | 0.36 | 85 | 1006.7 |
| 20260506194816 | 17 | 202 | 8.0 | 17.7 | 0.00 | 0.36 | 0.36 | 85 | 1006.7 |
| 20260506194548 | 17 | 203 | 6.4 | 19.3 | 0.00 | 0.36 | 0.36 | 84 | 1007.1 |
| 20260506194311 | 17 | 186 | 6.4 | 17.7 | 0.00 | 0.36 | 0.36 | 85 | 1006.9 |
| 20260506193811 | 17 | 215 | 3.2 | 16.1 | 0.00 | 0.36 | 0.36 | 87 | 1006.8 |
| 20260506193524 | 17 | 211 | 4.8 | 12.9 | 0.00 | 0.36 | 0.36 | 88 | 1006.9 |
| 20260506193040 | 17 | 198 | 3.2 | 12.9 | 0.00 | 0.36 | 0.36 | 87 | 1007.0 |
| 20260506192756 | 17 | 204 | 4.8 | 12.9 | 0.00 | 0.36 | 0.36 | 88 | 1006.9 |
| 20260506192252 | 17 | 200 | 6.4 | 12.9 | 0.00 | 0.36 | 0.36 | 89 | 1007.1 |
| 20260506191538 | 16 | 226 | 1.6 | 11.3 | 0.00 | 0.36 | 0.36 | 89 | 1007.4 |
| 20260506191243 | 16 | 189 | 1.6 | 9.7 | 0.00 | 0.36 | 0.36 | 89 | 1007.2 |
| 20260506190739 | 16 | 218 | 4.8 | 9.7 | 0.00 | 0.36 | 0.36 | 90 | 1007.1 |
| 20260506190457 | 16 | 225 | 6.4 | 12.9 | 0.00 | 0.36 | 0.36 | 90 | 1007.4 |
| 20260506190048 | 16 | 207 | 3.2 | 12.9 | 0.00 | 0.36 | 0.36 | 89 | 1007.6 |
| 20260506185730 | 16 | 194 | 3.2 | 12.9 | 0.00 | 0.36 | 0.36 | 90 | 1007.5 |
| 20260506185231 | 16 | 210 | 3.2 | 11.3 | 0.00 | 0.36 | 0.36 | 90 | 1007.4 |
| 20260506184724 | 16 | 226 | 1.6 | 11.3 | 0.00 | 0.36 | 0.36 | 90 | 1007.3 |
| 20260506184543 | 16 | 202 | 3.2 | 12.9 | 0.00 | 0.36 | 0.36 | 90 | 1007.5 |
| 20260506184220 | 16 | 192 | 3.2 | 14.5 | 0.00 | 0.36 | 0.36 | 90 | 1007.4 |
| 20260506183715 | 16 | 208 | 6.4 | 14.5 | 0.00 | 0.36 | 0.36 | 90 | 1007.6 |
| 20260506183210 | 16 | 192 | 6.4 | 12.9 | 0.00 | 0.36 | 0.36 | 89 | 1007.7 |
| 20260506183054 | 16 | 200 | 4.8 | 14.5 | 0.00 | 0.36 | 0.36 | 88 | 1007.9 |
| 20260506182704 | 16 | 206 | 6.4 | 14.5 | 0.00 | 0.36 | 0.36 | 88 | 1007.7 |
| 20260506182157 | 16 | 214 | 3.2 | 16.1 | 0.00 | 0.36 | 0.36 | 88 | 1007.8 |
| 20260506181653 | 16 | 213 | 6.4 | 16.1 | 0.00 | 0.36 | 0.36 | 87 | 1007.8 |
| 20260506181542 | 16 | 210 | 4.8 | 16.1 | 0.00 | 0.36 | 0.36 | 87 | 1008.2 |
| 20260506181148 | 16 | 209 | 4.8 | 11.3 | 0.00 | 0.36 | 0.36 | 87 | 1007.9 |
| 20260506180643 | 16 | 196 | 4.8 | 12.9 | 0.00 | 0.36 | 0.36 | 87 | 1008.0 |
| 20260506180137 | 16 | 200 | 6.4 | 14.5 | 0.00 | 0.36 | 0.36 | 86 | 1007.9 |
| 20260506180039 | 16 | 233 | 4.8 | 14.5 | 0.00 | 0.36 | 0.36 | 86 | 1008.2 |
| 20260506175638 | 16 | 211 | 6.4 | 14.5 | 0.00 | 0.36 | 0.36 | 87 | 1007.9 |
| 20260506175417 | 16 | 203 | 3.2 | 11.3 | 0.00 | 0.36 | 0.36 | 87 | 1008.0 |
| 20260506174622 | 16 | 208 | 4.8 | 14.5 | 0.00 | 0.36 | 0.36 | 87 | 1008.0 |
| 20260506174537 | 16 | 211 | 4.8 | 14.5 | 0.00 | 0.36 | 0.36 | 87 | 1008.1 |
| 20260506174118 | 16 | 203 | 4.8 | 14.5 | 0.00 | 0.36 | 0.36 | 87 | 1007.9 |
| 20260506173606 | 16 | 183 | 4.8 | 11.3 | 0.00 | 0.36 | 0.36 | 88 | 1007.9 |
| 20260506173331 | 16 | 203 | 1.6 | 9.7 | 0.00 | 0.36 | 0.36 | 88 | 1007.8 |
| 20260506173052 | 16 | 0 | 1.6 | 11.3 | 0.00 | 0.36 | 0.36 | 87 | 1008.1 |
| 20260506172604 | 16 | 200 | 1.6 | 11.3 | 0.00 | 0.36 | 0.36 | 88 | 1007.9 |
| 20260506172055 | 16 | 188 | 3.2 | 12.9 | 0.00 | 0.36 | 0.36 | 88 | 1007.8 |
| 20260506171551 | 16 | 139 | 4.8 | 12.9 | 0.00 | 0.36 | 0.36 | 88 | 1007.9 |
| 20260506171546 | 16 | 129 | 4.8 | 12.9 | 0.00 | 0.36 | 0.36 | 88 | 1008.1 |
| 20260506171050 | 16 | 210 | 1.6 | 11.3 | 0.00 | 0.36 | 0.36 | 88 | 1008.1 |
| 20260506170541 | 16 | 210 | 6.4 | 12.9 | 0.00 | 0.36 | 0.36 | 88 | 1008.2 |
| 20260506170046 | 16 | 198 | 4.8 | 16.1 | 0.00 | 0.36 | 0.36 | 87 | 1008.3 |
| 20260506170036 | 16 | 198 | 6.4 | 16.1 | 0.00 | 0.36 | 0.36 | 88 | 1008.3 |
| 20260506165531 | 16 | 191 | 6.4 | 16.1 | 0.03 | 0.36 | 0.36 | 88 | 1008.2 |
| 20260506165028 | 16 | 183 | 6.4 | 16.1 | 0.03 | 0.36 | 0.36 | 88 | 1008.1 |
| 20260506164549 | 16 | 180 | 6.4 | 20.9 | 0.03 | 0.36 | 0.36 | 87 | 1008.3 |
| 20260506164525 | 16 | 180 | 4.8 | 20.9 | 0.03 | 0.36 | 0.36 | 88 | 1008.1 |
| 20260506164020 | 16 | 182 | 8.0 | 20.9 | 0.05 | 0.36 | 0.36 | 88 | 1007.9 |
| 20260506163516 | 16 | 174 | 9.7 | 17.7 | 0.05 | 0.36 | 0.36 | 89 | 1007.9 |
| 20260506163040 | 16 | 189 | 8.0 | 19.3 | 0.08 | 0.36 | 0.36 | 89 | 1008.2 |
| 20260506163011 | 16 | 174 | 8.0 | 16.1 | 0.08 | 0.36 | 0.36 | 89 | 1007.9 |
| 20260506162507 | 16 | 189 | 6.4 | 14.5 | 0.10 | 0.36 | 0.36 | 89 | 1007.8 |
| 20260506162002 | 16 | 155 | 4.8 | 12.9 | 0.13 | 0.36 | 0.36 | 89 | 1007.5 |
| 20260506161729 | 16 | 175 | 4.8 | 12.9 | 0.15 | 0.36 | 0.36 | 89 | 1007.6 |
| 20260506161546 | 16 | 132 | 3.2 | 16.1 | 0.13 | 0.36 | 0.36 | 89 | 1007.8 |
| 20260506161211 | 16 | 156 | 8.0 | 12.9 | 0.15 | 0.36 | 0.36 | 89 | 1007.8 |
| 20260506160446 | 16 | 180 | 6.4 | 17.7 | 0.18 | 0.36 | 0.36 | 89 | 1008.3 |
| 20260506160046 | 16 | 200 | 3.2 | 25.7 | 0.18 | 0.36 | 0.36 | 89 | 1008.9 |
| 20260506155937 | 16 | 122 | 3.2 | 17.7 | 0.18 | 0.36 | 0.36 | 89 | 1008.6 |
| 20260506155432 | 16 | 175 | 3.2 | 9.7 | 0.18 | 0.33 | 0.33 | 89 | 1008.8 |
| 20260506155150 | 16 | 199 | 3.2 | 9.7 | 0.18 | 0.33 | 0.33 | 89 | 1009.0 |
| 20260506154544 | 15 | 214 | 3.2 | 14.5 | 0.18 | 0.33 | 0.33 | 88 | 1009.3 |
| 20260506154424 | 16 | 201 | 3.2 | 14.5 | 0.18 | 0.33 | 0.33 | 89 | 1009.1 |
| 20260506153919 | 16 | 157 | 4.8 | 14.5 | 0.18 | 0.30 | 0.30 | 88 | 1009.0 |
| 20260506153408 | 16 | 181 | 1.6 | 11.3 | 0.15 | 0.28 | 0.30 | 88 | 1008.9 |
| 20260506153038 | 16 | 165 | 3.2 | 16.1 | 0.18 | 0.28 | 0.28 | 87 | 1009.3 |
| 20260506152903 | 16 | 211 | 4.8 | 14.5 | 0.18 | 0.28 | 0.28 | 88 | 1009.1 |
| 20260506152359 | 16 | 215 | 4.8 | 14.5 | 0.18 | 0.25 | 0.25 | 88 | 1009.3 |
| 20260506151855 | 16 | 196 | 3.2 | 12.9 | 0.18 | 0.23 | 0.23 | 87 | 1009.1 |
| 20260506151600 | 16 | 194 | 4.8 | 12.9 | 0.20 | 0.23 | 0.23 | 87 | 1009.5 |
| 20260506151350 | 16 | 129 | 6.4 | 12.9 | 0.18 | 0.20 | 0.20 | 87 | 1009.3 |
| 20260506151100 | 16 | 153 | 3.2 | 11.3 | 0.20 | 0.20 | 0.20 | 87 | 1009.3 |
| 20260506150339 | 16 | 206 | 3.2 | 12.9 | 0.18 | 0.18 | 0.18 | 87 | 1009.2 |
| 20260506150043 | 16 | 193 | 3.2 | 14.5 | 0.18 | 0.18 | 0.18 | 86 | 1009.5 |
| 20260506145840 | 16 | 199 | 4.8 | 12.9 | 0.18 | 0.18 | 0.18 | 87 | 1009.3 |
| 20260506145331 | 16 | 198 | 3.2 | 12.9 | 0.15 | 0.15 | 0.15 | 87 | 1009.3 |
| 20260506145053 | 16 | 177 | 1.6 | 9.7 | 0.15 | 0.15 | 0.15 | 87 | 1009.1 |
| 20260506144541 | 16 | 178 | 3.2 | 9.7 | 0.15 | 0.15 | 0.15 | 86 | 1009.3 |
| 20260506144321 | 16 | 206 | 3.2 | 9.7 | 0.15 | 0.15 | 0.15 | 87 | 1009.0 |
| 20260506143817 | 16 | 201 | 1.6 | 9.7 | 0.13 | 0.13 | 0.13 | 86 | 1009.0 |
| 20260506143047 | 16 | 215 | 1.6 | 12.9 | 0.10 | 0.10 | 0.10 | 85 | 1009.3 |
| 20260506142808 | 16 | 207 | 3.2 | 12.9 | 0.10 | 0.10 | 0.10 | 85 | 1009.1 |
| 20260506142305 | 16 | 209 | 1.6 | 8.0 | 0.08 | 0.08 | 0.08 | 84 | 1009.1 |
| 20260506141759 | 17 | 200 | 3.2 | 9.7 | 0.03 | 0.03 | 0.03 | 83 | 1009.0 |
| 20260506141540 | 16 | 163 | 1.6 | 14.5 | 0.03 | 0.03 | 0.03 | 83 | 1009.4 |
| 20260506141254 | 17 | 202 | 6.4 | 12.9 | 0.00 | 0.00 | 0.03 | 82 | 1009.1 |
| 20260506140753 | 17 | 209 | 3.2 | 14.5 | 0.00 | 0.00 | 0.00 | 82 | 1009.1 |
| 20260506140501 | 17 | 153 | 4.8 | 14.5 | 0.00 | 0.00 | 0.00 | 81 | 1009.1 |
| 20260506140039 | 17 | 197 | 1.6 | 19.3 | 0.00 | 0.00 | 0.00 | 80 | 1009.4 |
| 20260506135740 | 17 | 227 | 4.8 | 19.3 | 0.00 | 0.00 | 0.00 | 79 | 1009.0 |
| 20260506135240 | 17 | 217 | 3.2 | 19.3 | 0.00 | 0.00 | 0.00 | 79 | 1008.9 |
| 20260506134956 | 18 | 207 | 6.4 | 16.1 | 0.00 | 0.00 | 0.00 | 78 | 1008.8 |
| 20260506134544 | 18 | 180 | 6.4 | 17.7 | 0.00 | 0.00 | 0.00 | 77 | 1009.1 |
| 20260506134232 | 18 | 173 | 3.2 | 16.1 | 0.00 | 0.00 | 0.00 | 78 | 1008.8 |
| 20260506133952 | 18 | 194 | 8.0 | 16.1 | 0.00 | 0.00 | 0.00 | 77 | 1008.8 |
| 20260506133223 | 18 | 225 | 4.8 | 16.1 | 0.00 | 0.00 | 0.00 | 78 | 1009.0 |
| 20260506133045 | 17 | 197 | 4.8 | 17.7 | 0.00 | 0.00 | 0.00 | 77 | 1009.2 |
| 20260506132719 | 18 | 176 | 4.8 | 16.1 | 0.00 | 0.00 | 0.00 | 78 | 1009.0 |
| 20260506132432 | 18 | 171 | 6.4 | 16.1 | 0.00 | 0.00 | 0.00 | 78 | 1009.1 |
| 20260506131709 | 18 | 198 | 6.4 | 12.9 | 0.00 | 0.00 | 0.00 | 77 | 1009.1 |
| 20260506131541 | 17 | 215 | 4.8 | 16.1 | 0.00 | 0.00 | 0.00 | 76 | 1009.4 |
| 20260506131205 | 18 | 199 | 6.4 | 14.5 | 0.00 | 0.00 | 0.00 | 76 | 1008.9 |
| 20260506130922 | 18 | 195 | 3.2 | 16.1 | 0.00 | 0.00 | 0.00 | 76 | 1009.2 |
| 20260506130200 | 18 | 193 | 4.8 | 17.7 | 0.00 | 0.00 | 0.00 | 76 | 1009.4 |
| 20260506130044 | 18 | 170 | 3.2 | 22.5 | 0.00 | 0.00 | 0.00 | 75 | 1009.4 |
| 20260506125656 | 18 | 206 | 9.7 | 22.5 | 0.00 | 0.00 | 0.00 | 75 | 1009.3 |
| 20260506125414 | 18 | 205 | 8.0 | 22.5 | 0.00 | 0.00 | 0.00 | 75 | 1009.3 |
| 20260506124651 | 18 | 198 | 9.7 | 16.1 | 0.00 | 0.00 | 0.00 | 74 | 1009.3 |
| 20260506124538 | 18 | 186 | 6.4 | 16.1 | 0.00 | 0.00 | 0.00 | 74 | 1009.5 |
| 20260506124143 | 18 | 180 | 8.0 | 17.7 | 0.00 | 0.00 | 0.00 | 73 | 1009.3 |
| 20260506123637 | 18 | 219 | 6.4 | 17.7 | 0.00 | 0.00 | 0.00 | 73 | 1009.1 |
| 20260506123133 | 18 | 158 | 6.4 | 16.1 | 0.00 | 0.00 | 0.00 | 72 | 1009.2 |
| 20260506123044 | 18 | 178 | 4.8 | 17.7 | 0.00 | 0.00 | 0.00 | 71 | 1009.4 |
| 20260506122628 | 18 | 209 | 6.4 | 16.1 | 0.00 | 0.00 | 0.00 | 72 | 1009.2 |
| 20260506122123 | 18 | 174 | 3.2 | 17.7 | 0.00 | 0.00 | 0.00 | 72 | 1009.1 |
| 20260506121618 | 18 | 189 | 9.7 | 19.3 | 0.00 | 0.00 | 0.00 | 71 | 1008.9 |
| 20260506121543 | 18 | 231 | 8.0 | 20.9 | 0.00 | 0.00 | 0.00 | 71 | 1009.1 |
| 20260506121116 | 18 | 205 | 9.7 | 19.3 | 0.00 | 0.00 | 0.00 | 72 | 1008.9 |
| 20260506120612 | 18 | 178 | 6.4 | 20.9 | 0.00 | 0.00 | 0.00 | 72 | 1008.8 |
| 20260506120107 | 18 | 180 | 8.0 | 20.9 | 0.00 | 0.00 | 0.00 | 72 | 1008.9 |
| 20260506120043 | 18 | 194 | 8.0 | 14.5 | 0.00 | 0.00 | 0.00 | 71 | 1009.1 |
| 20260506115824 | 18 | 169 | 8.0 | 14.5 | 0.00 | 0.00 | 0.00 | 72 | 1008.9 |
| 20260506115056 | 18 | 193 | 4.8 | 17.7 | 0.00 | 0.00 | 0.00 | 72 | 1008.8 |
| 20260506114550 | 18 | 179 | 8.0 | 17.7 | 0.00 | 0.00 | 0.00 | 72 | 1009.0 |
| 20260506114545 | 18 | 178 | 8.0 | 20.9 | 0.00 | 0.00 | 0.00 | 71 | 1009.1 |
| 20260506114309 | 18 | 200 | 4.8 | 8.0 | 0.00 | 0.00 | 0.00 | 72 | 1008.7 |
| 20260506113807 | 18 | 201 | 3.2 | 9.7 | 0.00 | 0.00 | 0.00 | 72 | 1008.8 |
| 20260506113037 | 18 | 225 | 3.2 | 14.5 | 0.00 | 0.00 | 0.00 | 72 | 1009.1 |
| 20260506112532 | 18 | 144 | 3.2 | 11.3 | 0.00 | 0.00 | 0.00 | 72 | 1008.7 |
| 20260506112032 | 18 | 197 | 3.2 | 14.5 | 0.00 | 0.00 | 0.00 | 72 | 1008.5 |
| 20260506111543 | 18 | 204 | 1.6 | 14.5 | 0.00 | 0.00 | 0.00 | 71 | 1008.9 |
| 20260506111530 | 18 | 204 | 1.6 | 14.5 | 0.00 | 0.00 | 0.00 | 72 | 1008.7 |
| 20260506111246 | 18 | 209 | 1.6 | 19.3 | 0.00 | 0.00 | 0.00 | 72 | 1008.9 |
| 20260506110515 | 18 | 145 | 3.2 | 19.3 | 0.00 | 0.00 | 0.00 | 72 | 1009.0 |
| 20260506110050 | 18 | 219 | 4.8 | 14.5 | 0.00 | 0.00 | 0.00 | 71 | 1009.1 |
| 20260506110011 | 18 | 227 | 6.4 | 14.5 | 0.00 | 0.00 | 0.00 | 72 | 1008.8 |
| 20260506105506 | 18 | 217 | 4.8 | 17.7 | 0.00 | 0.00 | 0.00 | 71 | 1008.6 |
| 20260506105001 | 18 | 184 | 9.7 | 17.7 | 0.00 | 0.00 | 0.00 | 71 | 1008.4 |
| 20260506104540 | 18 | 196 | 8.0 | 19.3 | 0.00 | 0.00 | 0.00 | 71 | 1008.7 |
| 20260506104457 | 18 | 194 | 9.7 | 17.7 | 0.00 | 0.00 | 0.00 | 71 | 1008.4 |
| 20260506103952 | 18 | 138 | 9.7 | 17.7 | 0.00 | 0.00 | 0.00 | 71 | 1008.4 |
| 20260506103446 | 18 | 188 | 6.4 | 20.9 | 0.00 | 0.00 | 0.00 | 71 | 1008.4 |
| 20260506103037 | 18 | 196 | 6.4 | 20.9 | 0.00 | 0.00 | 0.00 | 71 | 1008.6 |
| 20260506102942 | 18 | 214 | 6.4 | 20.9 | 0.00 | 0.00 | 0.00 | 71 | 1008.3 |
| 20260506102442 | 18 | 157 | 3.2 | 12.9 | 0.00 | 0.00 | 0.00 | 71 | 1008.2 |
| 20260506102155 | 18 | 207 | 6.4 | 11.3 | 0.00 | 0.00 | 0.00 | 71 | 1008.3 |
| 20260506101551 | 18 | 186 | 3.2 | 8.0 | 0.00 | 0.00 | 0.00 | 71 | 1008.5 |
| 20260506101435 | 18 | 109 | 4.8 | 6.4 | 0.00 | 0.00 | 0.00 | 71 | 1008.1 |
| 20260506100931 | 18 | 198 | 1.6 | 8.0 | 0.00 | 0.00 | 0.00 | 71 | 1008.2 |
| 20260506100426 | 18 | 186 | 1.6 | 9.7 | 0.00 | 0.00 | 0.00 | 71 | 1008.2 |
| 20260506100038 | 18 | 182 | 1.6 | 14.5 | 0.00 | 0.00 | 0.00 | 70 | 1008.6 |
| 20260506095920 | 18 | 180 | 3.2 | 14.5 | 0.00 | 0.00 | 0.00 | 71 | 1008.3 |
| 20260506095416 | 18 | 217 | 3.2 | 11.3 | 0.00 | 0.00 | 0.00 | 71 | 1008.3 |
| 20260506095130 | 18 | 202 | 3.2 | 9.7 | 0.00 | 0.00 | 0.00 | 71 | 1008.3 |
| 20260506094552 | 18 | 207 | 1.6 | 14.5 | 0.00 | 0.00 | 0.00 | 70 | 1008.6 |
| 20260506094406 | 18 | 188 | 1.6 | 12.9 | 0.00 | 0.00 | 0.00 | 71 | 1008.3 |
| 20260506093854 | 18 | 185 | 4.8 | 12.9 | 0.00 | 0.00 | 0.00 | 71 | 1008.3 |
| 20260506093348 | 18 | 136 | 6.4 | 12.9 | 0.00 | 0.00 | 0.00 | 71 | 1008.2 |
| 20260506093047 | 18 | 196 | 1.6 | 9.7 | 0.00 | 0.00 | 0.00 | 70 | 1008.4 |
| 20260506092843 | 18 | 209 | 3.2 | 9.7 | 0.00 | 0.00 | 0.00 | 71 | 1008.3 |
| 20260506092339 | 18 | 165 | 3.2 | 8.0 | 0.00 | 0.00 | 0.00 | 70 | 1008.2 |
| 20260506091834 | 18 | 207 | 4.8 | 11.3 | 0.00 | 0.00 | 0.00 | 70 | 1008.3 |
| 20260506091537 | 18 | 189 | 3.2 | 16.1 | 0.00 | 0.00 | 0.00 | 70 | 1008.5 |
| 20260506091329 | 18 | 188 | 3.2 | 14.5 | 0.00 | 0.00 | 0.00 | 70 | 1008.2 |
| 20260506090824 | 19 | 159 | 4.8 | 14.5 | 0.00 | 0.00 | 0.00 | 70 | 1008.4 |
| 20260506090322 | 19 | 232 | 3.2 | 9.7 | 0.00 | 0.00 | 0.00 | 70 | 1008.3 |
| 20260506090038 | 18 | 143 | 3.2 | 9.7 | 0.00 | 0.00 | 0.00 | 69 | 1008.7 |
| 20260506085814 | 19 | 194 | 4.8 | 9.7 | 0.00 | 0.00 | 0.00 | 69 | 1008.4 |
| 20260506085310 | 19 | 210 | 3.2 | 8.0 | 0.00 | 0.00 | 0.00 | 69 | 1008.4 |
| 20260506084806 | 19 | 126 | 3.2 | 9.7 | 0.00 | 0.00 | 0.00 | 69 | 1008.4 |
| 20260506084542 | 19 | 191 | 1.6 | 11.3 | 0.00 | 0.00 | 0.00 | 68 | 1008.7 |
| 20260506084301 | 19 | 194 | 3.2 | 9.7 | 0.00 | 0.00 | 0.00 | 69 | 1008.4 |
| 20260506083801 | 19 | 161 | 4.8 | 16.1 | 0.00 | 0.00 | 0.00 | 68 | 1008.4 |
| 20260506083254 | 19 | 181 | 6.4 | 16.1 | 0.00 | 0.00 | 0.00 | 68 | 1008.4 |
| 20260506083040 | 19 | 200 | 6.4 | 14.5 | 0.00 | 0.00 | 0.00 | 68 | 1008.6 |
| 20260506082747 | 19 | 205 | 6.4 | 11.3 | 0.00 | 0.00 | 0.00 | 68 | 1008.4 |
| 20260506081742 | 19 | 201 | 3.2 | 14.5 | 0.00 | 0.00 | 0.00 | 68 | 1008.5 |
| 20260506081542 | 19 | 145 | 6.4 | 14.5 | 0.00 | 0.00 | 0.00 | 67 | 1008.7 |
| 20260506081237 | 19 | 194 | 6.4 | 12.9 | 0.00 | 0.00 | 0.00 | 68 | 1008.4 |
| 20260506080232 | 19 | 211 | 8.0 | 16.1 | 0.00 | 0.00 | 0.00 | 67 | 1008.5 |
| 20260506073159 | 19 | 198 | 1.6 | 12.9 | 0.00 | 0.00 | 0.00 | 66 | 1008.6 |
| 20260506073045 | 19 | 198 | 1.6 | 16.1 | 0.00 | 0.00 | 0.00 | 65 | 1008.8 |
| 20260506072923 | 19 | 157 | 4.8 | 14.5 | 0.00 | 0.00 | 0.00 | 65 | 1008.5 |
| 20260506072154 | 19 | 140 | 6.4 | 14.5 | 0.00 | 0.00 | 0.00 | 65 | 1008.6 |
| 20260506071910 | 19 | 208 | 6.4 | 12.9 | 0.00 | 0.00 | 0.00 | 65 | 1008.5 |
| 20260506071600 | 19 | 207 | 4.8 | 14.5 | 0.00 | 0.00 | 0.00 | 64 | 1008.9 |
| 20260506071156 | 19 | 161 | 1.6 | 14.5 | 0.00 | 0.00 | 0.00 | 65 | 1008.7 |
| 20260506070910 | 19 | 161 | 4.8 | 14.5 | 0.00 | 0.00 | 0.00 | 64 | 1008.7 |
| 20260506070150 | 20 | 139 | 3.2 | 14.5 | 0.00 | 0.00 | 0.00 | 64 | 1008.8 |
| 20260506062056 | 20 | 184 | 3.2 | 8.0 | 0.00 | 0.00 | 0.00 | 62 | 1009.2 |
| 20260506061552 | 20 | 156 | 0.0 | 6.4 | 0.00 | 0.00 | 0.00 | 62 | 1009.2 |
| 20260506061537 | 19 | 0 | 0.0 | 9.7 | 0.00 | 0.00 | 0.00 | 61 | 1009.5 |
| 20260506061040 | 20 | 156 | 1.6 | 6.4 | 0.00 | 0.00 | 0.00 | 62 | 1009.3 |
| 20260506060534 | 19 | 136 | 0.0 | 3.2 | 0.00 | 0.00 | 0.00 | 62 | 1009.2 |
| 20260506050923 | 20 | 207 | 1.6 | 11.3 | 0.00 | 0.00 | 0.00 | 59 | 1009.6 |
| 20260506050419 | 20 | 171 | 4.8 | 11.3 | 0.00 | 0.00 | 0.00 | 59 | 1009.7 |
| 20260506045118 | 20 | 175 | 3.2 | 11.3 | 0.00 | 0.00 | 0.00 | 58 | 1009.7 |
| 20260506044544 | 20 | 223 | 1.6 | 11.3 | 0.00 | 0.00 | 0.00 | 57 | 1010.0 |
| 20260506044351 | 20 | 175 | 1.6 | 9.7 | 0.00 | 0.00 | 0.00 | 58 | 1009.7 |
| 20260506043847 | 20 | 198 | 4.8 | 9.7 | 0.00 | 0.00 | 0.00 | 57 | 1009.8 |
| 20260506043341 | 20 | 203 | 1.6 | 8.0 | 0.00 | 0.00 | 0.00 | 58 | 1009.7 |
| 20260506043041 | 20 | 154 | 1.6 | 6.4 | 0.00 | 0.00 | 0.00 | 57 | 1010.0 |
| 20260506042837 | 20 | 184 | 1.6 | 6.4 | 0.00 | 0.00 | 0.00 | 58 | 1009.7 |
| 20260506042331 | 20 | 198 | 0.0 | 8.0 | 0.00 | 0.00 | 0.00 | 57 | 1009.8 |
| 20260506041825 | 20 | 199 | 1.6 | 8.0 | 0.00 | 0.00 | 0.00 | 57 | 1010.0 |
| 20260506041553 | 20 | 194 | 1.6 | 9.7 | 0.00 | 0.00 | 0.00 | 57 | 1010.2 |
| 20260506041324 | 20 | 211 | 1.6 | 6.4 | 0.00 | 0.00 | 0.00 | 57 | 1009.9 |
| 20260506040809 | 20 | 214 | 0.0 | 6.4 | 0.00 | 0.00 | 0.00 | 57 | 1009.8 |
| 20260506040304 | 20 | 215 | 0.0 | 4.8 | 0.00 | 0.00 | 0.00 | 56 | 1009.7 |
| 20260506040041 | 20 | 0 | 1.6 | 4.8 | 0.00 | 0.00 | 0.00 | 56 | 1009.9 |
| 20260506035805 | 20 | 215 | 1.6 | 8.0 | 0.00 | 0.00 | 0.00 | 55 | 1009.7 |
| 20260506035531 | 20 | 215 | 1.6 | 11.3 | 0.00 | 0.00 | 0.00 | 55 | 1009.8 |
| 20260506035019 | 20 | 211 | 1.6 | 11.3 | 0.00 | 0.00 | 0.00 | 55 | 1009.7 |
| 20260506034547 | 20 | 211 | 0.0 | 12.9 | 0.00 | 0.00 | 0.00 | 55 | 1010.0 |
| 20260506034510 | 20 | 205 | 3.2 | 9.7 | 0.00 | 0.00 | 0.00 | 55 | 1009.8 |
| 20260506033748 | 20 | 147 | 0.0 | 8.0 | 0.00 | 0.00 | 0.00 | 55 | 1009.7 |
| 20260506033242 | 20 | 171 | 0.0 | 9.7 | 0.00 | 0.00 | 0.00 | 55 | 1009.6 |
| 20260506033044 | 20 | 0 | 0.0 | 12.9 | 0.00 | 0.00 | 0.00 | 55 | 1009.8 |
| 20260506032737 | 20 | 188 | 0.0 | 12.9 | 0.00 | 0.00 | 0.00 | 55 | 1009.5 |
| 20260506032233 | 20 | 167 | 3.2 | 12.9 | 0.00 | 0.00 | 0.00 | 55 | 1009.5 |
| 20260506031953 | 20 | 140 | 3.2 | 12.9 | 0.00 | 0.00 | 0.00 | 54 | 1009.4 |
| 20260506031540 | 20 | 208 | 1.6 | 12.9 | 0.00 | 0.00 | 0.00 | 54 | 1009.8 |
| 20260506031224 | 21 | 198 | 3.2 | 12.9 | 0.00 | 0.00 | 0.00 | 54 | 1009.5 |
| 20260506030720 | 21 | 219 | 3.2 | 8.0 | 0.00 | 0.00 | 0.00 | 54 | 1009.5 |
| 20260506030216 | 21 | 141 | 1.6 | 8.0 | 0.00 | 0.00 | 0.00 | 54 | 1009.7 |
| 20260506030042 | 21 | 0 | 1.6 | 8.0 | 0.00 | 0.00 | 0.00 | 53 | 1009.8 |
| 20260506025712 | 21 | 212 | 1.6 | 8.0 | 0.00 | 0.00 | 0.00 | 53 | 1009.5 |
| 20260506025207 | 21 | 216 | 1.6 | 6.4 | 0.00 | 0.00 | 0.00 | 53 | 1009.6 |
| 20260506024701 | 21 | 184 | 1.6 | 4.8 | 0.00 | 0.00 | 0.00 | 53 | 1009.5 |
| 20260506024541 | 20 | 184 | 1.6 | 4.8 | 0.00 | 0.00 | 0.00 | 52 | 1009.8 |
| 20260506024157 | 21 | 183 | 0.0 | 3.2 | 0.00 | 0.00 | 0.00 | 53 | 1009.6 |
| 20260506023701 | 21 | 183 | 0.0 | 3.2 | 0.00 | 0.00 | 0.00 | 52 | 1009.6 |
| 20260506023418 | 21 | 183 | 0.0 | 6.4 | 0.00 | 0.00 | 0.00 | 51 | 1009.7 |
| 20260506023044 | 21 | 0 | 0.0 | 6.4 | 0.00 | 0.00 | 0.00 | 51 | 1009.9 |
| 20260506022647 | 21 | 183 | 3.2 | 9.7 | 0.00 | 0.00 | 0.00 | 51 | 1009.7 |
| 20260506022135 | 21 | 221 | 0.0 | 11.3 | 0.00 | 0.00 | 0.00 | 50 | 1009.7 |
| 20260506021854 | 22 | 192 | 3.2 | 11.3 | 0.00 | 0.00 | 0.00 | 50 | 1009.8 |
| 20260506021544 | 21 | 188 | 1.6 | 16.1 | 0.00 | 0.00 | 0.00 | 49 | 1009.9 |
| 20260506021126 | 22 | 196 | 3.2 | 11.3 | 0.00 | 0.00 | 0.00 | 49 | 1009.7 |
| 20260506020620 | 22 | 125 | 3.2 | 9.7 | 0.00 | 0.00 | 0.00 | 49 | 1009.6 |
| 20260506020115 | 22 | 208 | 3.2 | 12.9 | 0.00 | 0.00 | 0.00 | 48 | 1009.7 |
| 20260506020038 | 22 | 148 | 1.6 | 16.1 | 0.00 | 0.00 | 0.00 | 48 | 1009.8 |
| 20260506015611 | 22 | 196 | 4.8 | 12.9 | 0.00 | 0.00 | 0.00 | 48 | 1009.5 |
| 20260506015106 | 22 | 186 | 3.2 | 8.0 | 0.00 | 0.00 | 0.00 | 48 | 1009.4 |
| 20260506014601 | 22 | 138 | 3.2 | 6.4 | 0.00 | 0.00 | 0.00 | 48 | 1009.3 |
| 20260506014546 | 22 | 138 | 1.6 | 8.0 | 0.00 | 0.00 | 0.00 | 47 | 1009.5 |
| 20260506014056 | 22 | 142 | 3.2 | 8.0 | 0.00 | 0.00 | 0.00 | 47 | 1009.3 |
| 20260506013544 | 22 | 169 | 3.2 | 14.5 | 0.00 | 0.00 | 0.00 | 47 | 1009.2 |
| 20260506013041 | 23 | 171 | 3.2 | 14.5 | 0.00 | 0.00 | 0.00 | 46 | 1009.1 |
| 20260506013039 | 22 | 174 | 4.8 | 16.1 | 0.00 | 0.00 | 0.00 | 45 | 1009.4 |
| 20260506012535 | 23 | 201 | 6.4 | 14.5 | 0.00 | 0.00 | 0.00 | 46 | 1009.1 |
| 20260506012030 | 23 | 184 | 4.8 | 14.5 | 0.00 | 0.00 | 0.00 | 46 | 1009.1 |
| 20260506011544 | 22 | 174 | 3.2 | 14.5 | 0.00 | 0.00 | 0.00 | 45 | 1009.3 |
| 20260506011526 | 23 | 174 | 3.2 | 12.9 | 0.00 | 0.00 | 0.00 | 45 | 1009.0 |
| 20260506011015 | 23 | 180 | 4.8 | 11.3 | 0.00 | 0.00 | 0.00 | 45 | 1009.0 |
| 20260506010510 | 23 | 140 | 4.8 | 11.3 | 0.00 | 0.00 | 0.00 | 44 | 1008.9 |
| 20260506010041 | 23 | 175 | 1.6 | 8.0 | 0.00 | 0.00 | 0.00 | 43 | 1009.1 |
| 20260506010011 | 23 | 151 | 3.2 | 8.0 | 0.00 | 0.00 | 0.00 | 44 | 1008.9 |
| 20260506005505 | 23 | 124 | 3.2 | 8.0 | 0.00 | 0.00 | 0.00 | 43 | 1008.9 |
| 20260506004957 | 23 | 162 | 3.2 | 11.3 | 0.00 | 0.00 | 0.00 | 42 | 1008.8 |
| 20260506004717 | 23 | 200 | 3.2 | 16.1 | 0.00 | 0.00 | 0.00 | 42 | 1008.8 |
| 20260506004542 | 23 | 200 | 1.6 | 16.1 | 0.00 | 0.00 | 0.00 | 42 | 1009.1 |
| 20260506004211 | 23 | 193 | 4.8 | 16.1 | 0.00 | 0.00 | 0.00 | 42 | 1008.7 |
| 20260506003442 | 23 | 191 | 3.2 | 16.1 | 0.00 | 0.00 | 0.00 | 42 | 1008.7 |
| 20260506003038 | 23 | 190 | 6.4 | 16.1 | 0.00 | 0.00 | 0.00 | 41 | 1008.9 |
| 20260506002937 | 23 | 198 | 6.4 | 12.9 | 0.00 | 0.00 | 0.00 | 42 | 1008.7 |
| 20260506002438 | 24 | 171 | 4.8 | 9.7 | 0.00 | 0.00 | 0.00 | 42 | 1008.6 |
| 20260506001932 | 24 | 163 | 3.2 | 8.0 | 0.00 | 0.00 | 0.00 | 41 | 1008.6 |
| 20260506001605 | 23 | 196 | 1.6 | 16.1 | 0.00 | 0.00 | 0.00 | 40 | 1008.7 |
| 20260506001428 | 24 | 188 | 3.2 | 14.5 | 0.00 | 0.00 | 0.00 | 41 | 1008.5 |
| 20260506000927 | 24 | 201 | 1.6 | 14.5 | 0.00 | 0.00 | 0.00 | 40 | 1008.5 |
| 20260506000423 | 24 | 190 | 3.2 | 14.5 | 0.00 | 0.00 | 0.00 | 40 | 1008.4 |
| 20260506000047 | 24 | 130 | 4.8 | 12.9 | 0.00 | 0.00 | 0.00 | 40 | 1008.7 |
| 20260505235913 | 25 | 192 | 4.8 | 12.9 | 0.00 | 0.00 | 0.00 | 40 | 1008.4 |
| 20260505235408 | 25 | 198 | 6.4 | 19.3 | 0.00 | 0.00 | 0.00 | 39 | 1008.4 |
| 20260505234903 | 25 | 169 | 4.8 | 19.3 | 0.00 | 0.00 | 0.00 | 39 | 1008.3 |
| 20260505234547 | 24 | 219 | 4.8 | 16.1 | 0.00 | 0.00 | 0.00 | 39 | 1008.6 |
| 20260505234359 | 25 | 207 | 1.6 | 16.1 | 0.00 | 0.00 | 0.00 | 39 | 1008.3 |
| 20260505233854 | 25 | 205 | 8.0 | 17.7 | 0.00 | 0.00 | 0.00 | 39 | 1008.2 |
| 20260505233353 | 25 | 198 | 6.4 | 19.3 | 0.00 | 0.00 | 0.00 | 38 | 1008.1 |
| 20260505233040 | 25 | 192 | 9.7 | 20.9 | 0.00 | 0.00 | 0.00 | 38 | 1008.3 |
| 20260505232845 | 25 | 197 | 8.0 | 19.3 | 0.00 | 0.00 | 0.00 | 39 | 1008.2 |
| 20260505232340 | 25 | 142 | 8.0 | 19.3 | 0.00 | 0.00 | 0.00 | 39 | 1008.2 |
| 20260505231828 | 25 | 190 | 6.4 | 20.9 | 0.00 | 0.00 | 0.00 | 39 | 1008.2 |
| 20260505231553 | 25 | 207 | 9.7 | 20.9 | 0.00 | 0.00 | 0.00 | 39 | 1008.2 |
| 20260505231551 | 25 | 187 | 9.7 | 29.0 | 0.00 | 0.00 | 0.00 | 38 | 1008.4 |
| 20260505230819 | 25 | 115 | 4.8 | 12.9 | 0.00 | 0.00 | 0.00 | 39 | 1008.1 |
| 20260505230045 | 25 | 134 | 8.0 | 17.7 | 0.00 | 0.00 | 0.00 | 38 | 1008.3 |
| 20260505225809 | 25 | 196 | 6.4 | 16.1 | 0.00 | 0.00 | 0.00 | 39 | 1008.0 |
| 20260505225305 | 25 | 238 | 8.0 | 16.1 | 0.00 | 0.00 | 0.00 | 39 | 1008.1 |
| 20260505224759 | 25 | 122 | 4.8 | 14.5 | 0.00 | 0.00 | 0.00 | 39 | 1008.1 |
| 20260505224542 | 25 | 133 | 4.8 | 16.1 | 0.00 | 0.00 | 0.00 | 39 | 1008.3 |
| 20260505224254 | 26 | 168 | 3.2 | 14.5 | 0.00 | 0.00 | 0.00 | 39 | 1008.0 |
| 20260505223748 | 26 | 195 | 4.8 | 14.5 | 0.00 | 0.00 | 0.00 | 38 | 1008.0 |
| 20260505223248 | 26 | 179 | 6.4 | 22.5 | 0.00 | 0.00 | 0.00 | 37 | 1008.0 |
| 20260505223043 | 26 | 236 | 4.8 | 24.1 | 0.00 | 0.00 | 0.00 | 36 | 1008.2 |
| 20260505222740 | 26 | 197 | 11.3 | 22.5 | 0.00 | 0.00 | 0.00 | 36 | 1007.9 |
| 20260505222236 | 26 | 175 | 11.3 | 25.7 | 0.00 | 0.00 | 0.00 | 36 | 1008.0 |
| 20260505221737 | 26 | 213 | 9.7 | 25.7 | 0.00 | 0.00 | 0.00 | 36 | 1007.9 |
| 20260505221552 | 26 | 121 | 6.4 | 16.1 | 0.00 | 0.00 | 0.00 | 34 | 1008.2 |
| 20260505221228 | 27 | 186 | 6.4 | 17.7 | 0.00 | 0.00 | 0.00 | 35 | 1008.0 |
| 20260505220721 | 27 | 219 | 4.8 | 17.7 | 0.00 | 0.00 | 0.00 | 36 | 1007.9 |
| 20260505220218 | 27 | 206 | 6.4 | 24.1 | 0.00 | 0.00 | 0.00 | 36 | 1007.9 |
| 20260505220047 | 27 | 188 | 9.7 | 29.0 | 0.00 | 0.00 | 0.00 | 34 | 1008.2 |
| 20260505215715 | 27 | 164 | 6.4 | 24.1 | 0.00 | 0.00 | 0.00 | 35 | 1007.7 |
| 20260505215208 | 27 | 213 | 9.7 | 20.9 | 0.00 | 0.00 | 0.00 | 35 | 1007.7 |
| 20260505214704 | 27 | 184 | 9.7 | 20.9 | 0.00 | 0.00 | 0.00 | 35 | 1007.8 |
| 20260505214557 | 27 | 161 | 6.4 | 27.4 | 0.00 | 0.00 | 0.00 | 35 | 1007.9 |
| 20260505214203 | 27 | 187 | 6.4 | 27.4 | 0.00 | 0.00 | 0.00 | 36 | 1007.7 |
| 20260505213658 | 27 | 213 | 8.0 | 25.7 | 0.00 | 0.00 | 0.00 | 37 | 1007.9 |
| 20260505213153 | 27 | 188 | 14.5 | 30.6 | 0.00 | 0.00 | 0.00 | 35 | 1007.9 |
| 20260505213053 | 27 | 247 | 11.3 | 32.2 | 0.00 | 0.00 | 0.00 | 34 | 1008.1 |
| 20260505212648 | 27 | 238 | 12.9 | 30.6 | 0.00 | 0.00 | 0.00 | 35 | 1007.9 |